Terug naar catalogus

STARLINK-2628

ActiefCommunicatieVLEO
NORAD 48359·PAYLOAD·🇺🇸 United States

Gelanceerd May 4, 2021 vanaf Cape Canaveral Space Force Station

Loading…

Volgende Passages (komende 24 uur)

TLE

VersSource: CelesTrak SupGP

Epoch: Sep 14, 2026, 21:40 UTC

1 48359C 21038G   26257.90326389  .00009373  00000+0  29003-3 0  2570
2 48359  53.1579 197.8312 0001979 112.9043 225.7916 15.32921874    13

Volg STARLINK-2628 in realtime met AllMySat

Download on the App Store